Menahga, MN (56464)

4:16 AM CDT on September 02, 2015 (GMT -0500)
Pyburn Addition | | Change Station
CLOSE
Current Station
Personal Weather Station
Location: Menahga, MN
Elevation: 1444 ft
Nearby Weather Stations

Elev 1444 ft 46.84 °N, 95.09 °W | Updated 5 seconds ago

Partly Cloudy
Partly Cloudy
66.4 °F
Feels Like 66.4 °F
N
0.0
Wind Variable Wind from SSW
Gusts 0.0 mph

Today
High -- | Low -- °F
--% Chance of Precip.
Yesterday
High -- | Low -- °F
Precip. -- in
6:40 AM 7:57 PM
Waning Gibbous, 82% visible
Pressure 29.90 in
Visibility 1.8 miles
Clouds Mostly Cloudy 200 ft
Dew Point 66 °F
Humidity 99%
Rainfall 0.00 in
Snow Depth Not available.
UV 0.0 out of 12
Pollen 9.90 out of 12
Air Quality Not available.
Flu Activity Not available.
SPECI KPKD 020900Z AUTO 16003KT 1 3/4SM BR BKN002 19/18 A2990 RMK AO2 T01890178
Pressure 29.90 in
Visibility 1.8 miles
Clouds Mostly Cloudy 200 ft
Dew Point 66 °F
Humidity 99%
Rainfall 0.00 in
Snow Depth Not available.
UV 0.0 out of 12
Pollen 9.90 out of 12
Air Quality Not available.
Flu Activity Not available.
SPECI KPKD 020900Z AUTO 16003KT 1 3/4SM BR BKN002 19/18 A2990 RMK AO2 T01890178

10-Day Weather Forecast

×

Almanac

Astronomy

Sep. 02, 2015 Rise Set
Actual Time
Civil Twilight
Nautical Twilight
Astronomical Twilight
Moon
Length of Visible Light
Length of Day
Tomorrow will be .
, % of the Moon is Illuminated

Today's Extremes

State Highs State Lows

Community

WunderPhotos

Upload Photos

1,851,729 photos uploaded!

WunderBlogs® & News

Nearby

Air Quality

  Air Quality AQ Index Pollutant
Not available.

Snow Depth

Station Depth Elevation

Earthquake Activity

City Distance Mag. Time & Date
Minimum magnitude displayed is 2.5.

Coastal Water Temperatures

Place Temperature

Stations

Nearby Weather Stations

Station Location Temp. Windchill Dew Point Humidity Wind Precip. Elev Updated Type